Location: Bacharowice
(49.9333°N, 19.5833°E)
Time: 11:27:19
(UTC+00:00)

Meteor 1-27 Rocket - Pass Details

Date: 11 May 2021
Orbit: 829 x 910 km, 81.3° (Epoch: 22 June)

Event Time Altitude Azimuth Distance (km) Brightness Sun altitude
Exits shadow 20:16:26 22° 159° (SSE) 1,864 4.9 -15.1°
Maximum altitude 20:20:02 49° 94° (E) 1,144 4.1 -15.4°
Drops below altitude 10° 20:25:43 10° 21° (NNE) 2,602 6.7 -16.0°
Sets 20:28:16 0° 16° (NNE) 3,552 7.6 -16.2°
